Regional Weather Roundup
Issued by NWS Little Rock, AR

Home | Current Version | Previous Version | Graphics & Text | Print | Product List | Glossary Off
Versions: 1 2 3 4 5 6 7 8 9 10 11 12 13 14 15 16 17 18 19 20 21 22 23 24 25 26 27 28 29 30 31 32 33 34 35 36 37 38 39 40 41 42 43 44 45 46 47 48 49 50

000
ASUS44 KLZK 291205
RWRLZK

WEATHER ROUNDUP FOR ARKANSAS
NATIONAL WEATHER SERVICE LITTLE ROCK AR
700 AM CDT WED JUL 29 2015

NOTE: "FAIR" INDICATES FEW OR NO CLOUDS BELOW 12,000 FEET WITH NO
SIGNIFICANT WEATHER AND/OR OBSTRUCTIONS TO VISIBILITY.

ARZ001-003-010-029-291300-
NORTHWEST ARKANSAS

CITY           SKY/WX    TMP DP  RH WIND       PRES   REMARKS
FAYETTEVILLE   CLEAR     71  70  96 CALM      30.07R FOG
6HR MIN TEMP:  70; 6HR MAX TEMP:  76;

FORT SMITH     CLEAR     78  73  84 CALM      30.02R
6HR MIN TEMP:  78; 6HR MAX TEMP:  83;

HARRISON       CLEAR     74  70  87 CALM      30.08R
6HR MIN TEMP:  74; 6HR MAX TEMP:  79;

BENTONVILLE    CLEAR     73  68  83 CALM      30.08R
6HR MIN TEMP:  73; 6HR MAX TEMP:  79;

ROGERS         CLEAR     75  71  87 SE3       30.09R
6HR MIN TEMP:  75; 6HR MAX TEMP:  80;

SILOAM SPGS    CLEAR     73  66  78 CALM      30.05R
6HR MIN TEMP:  73; 6HR MAX TEMP:  79;

HIGHFILL       CLEAR     73  72  96 CALM      30.07R FOG
6HR MIN TEMP:  72; 6HR MAX TEMP:  79;

SPRINGDALE     CLEAR     75  72  88 CALM      30.09R
$$

ARZ004-005-016-291300-
NORTH CENTRAL ARKANSAS

CITY           SKY/WX    TMP DP  RH WIND       PRES   REMARKS
BATESVILLE     CLEAR     79  73  83 CALM      30.03S
6HR MIN TEMP:  75; 6HR MAX TEMP:  81;

FLIPPIN        CLEAR     75  72  88 CALM      30.03S
6HR MIN TEMP:  75; 6HR MAX TEMP:  79;

MTN HOME       CLEAR     76  73  91 CALM      30.05R FOG
6HR MIN TEMP:  75; 6HR MAX TEMP:  79;

$$

ARZ040-041-291300-
WEST CENTRAL ARKANSAS

CITY           SKY/WX    TMP DP  RH WIND       PRES   REMARKS
MENA           CLEAR     72  70  94 CALM      30.06S
MOUNT IDA      CLEAR     73  71  93 CALM      30.03R FOG
6HR MIN TEMP:  73; 6HR MAX TEMP:  76;

$$

ARZ009-017-025-026-028-291300-
NORTHEAST ARKANSAS

CITY           SKY/WX    TMP DP  RH WIND       PRES   REMARKS
JONESBORO      PTCLDY    79  76  90 W3        30.02R
6HR MIN TEMP:  78; 6HR MAX TEMP:  82;

NEWPORT        CLEAR     80  78  94 S3        30.03R HX  86
6HR MIN TEMP:  79; 6HR MAX TEMP:  83;

WALNUT RIDGE   PTCLDY    79  75  89 S3        30.01S
6HR MIN TEMP:  79; 6HR MAX TEMP:  82;

BLYTHEVILLE    CLOUDY    81  81 100 SW5       30.02R HX  92
6HR MIN TEMP:  80; 6HR MAX TEMP:  83;

$$

ARZ022-023-033-042-044-291300-
CENTRAL ARKANSAS

CITY           SKY/WX    TMP DP  RH WIND       PRES   REMARKS
LITTLE ROCK    PTCLDY    80  74  81 W3        30.03R HX  85
6HR MIN TEMP:  79; 6HR MAX TEMP:  83;

N LITTLE ROCK    N/A     81  75  81 NW5       30.03R HX  87
6HR MIN TEMP:  80; 6HR MAX TEMP:  83;

JACKSONVILLE   CLEAR     77  74  91 CALM      30.03R
6HR MIN TEMP:  75; 6HR MAX TEMP:  81;

SEARCY         CLEAR     76  75  97 CALM      30.05R
6HR MIN TEMP:  75; 6HR MAX TEMP:  78;

HOT SPRINGS    CLEAR     77  73  87 CALM      30.04R
6HR MIN TEMP:  76; 6HR MAX TEMP:  81;

RUSSELLVILLE   CLEAR     75  74  96 CALM      30.03R FOG
6HR MIN TEMP:  74; 6HR MAX TEMP:  77;

CLINTON        FAIR      73  73 100 CALM      30.06R FOG
$$

ARZ036-291300-
EAST ARKANSAS

CITY           SKY/WX    TMP DP  RH WIND       PRES   REMARKS
WEST MEMPHIS   PTCLDY    79  78  97 CALM      30.02R
6HR MIN TEMP:  77; 6HR MAX TEMP:  83;

$$

ARZ050-053-066-070-073-291300-
SOUTHWEST ARKANSAS

CITY           SKY/WX    TMP DP  RH WIND       PRES   REMARKS
ARKADELPHIA    FAIR      75  75 100 CALM      30.04R FOG
6HR MIN TEMP:  74; 6HR MAX TEMP:  78;

CAMDEN         CLEAR     75  73  94 CALM      30.03R FOG
TEXARKANA      CLEAR     78  72  81 SW7       30.03R
6HR MIN TEMP:  77; 6HR MAX TEMP:  84;

EL DORADO      CLEAR     77  72  84 SW3       30.04R
6HR MIN TEMP:  75; 6HR MAX TEMP:  78;

DE QUEEN       FOG       73  73 100 CALM      30.02R VSB 1/2
6HR MIN TEMP:  72; 6HR MAX TEMP:  77;

$$

ARZ056-057-069-291300-
SOUTHEAST ARKANSAS

CITY           SKY/WX    TMP DP  RH WIND       PRES   REMARKS
PINE BLUFF     CLEAR     77  75  93 CALM      30.04R
6HR MIN TEMP:  77; 6HR MAX TEMP:  81;

STUTTGART      CLEAR     81  73  78 CALM      30.03R HX  85
6HR MIN TEMP:  79; 6HR MAX TEMP:  84;

MONTICELLO     CLEAR     78  75  90 CALM      30.03R
6HR MIN TEMP:  77; 6HR MAX TEMP:  83;


$$




USA.gov is the U.S. government's official web portal to all federal, state and local government web resources and services.